EDT,Max TemperatureF,Mean TemperatureF,Min TemperatureF,Max Dew PointF,MeanDew PointF,Min DewpointF,Max Humidity, Mean Humidity, Min Humidity, Max Sea Level PressureIn, Mean Sea Level PressureIn, Min Sea Level PressureIn, Max VisibilityMiles, Mean VisibilityMiles, Min VisibilityMiles, Max Wind SpeedMPH, Mean Wind SpeedMPH, Max Gust SpeedMPH,PrecipitationIn, CloudCover, Events, WindDirDegrees
2013-9-1,82,74,66,72,68,64,100,86,66,29.91,29.87,29.84,10,10,7,10,5,16,0.04,3,Rain,238
2013-9-2,82,75,68,72,70,66,100,88,70,29.95,29.89,29.86,10,10,3,10,6,,0.10,4,Rain,260
2013-9-3,78,68,59,68,61,57,100,77,54,30.10,30.01,29.91,10,10,3,9,3,,0.00,2,,16
2013-9-4,78,64,51,63,57,52,100,80,50,30.19,30.15,30.10,10,10,7,6,2,,0.00,0,,75
2013-9-5,82,68,53,66,59,54,100,81,45,30.23,30.20,30.17,10,9,2,6,2,,0.00,0,,283
2013-9-6,80,68,57,61,56,50,100,69,34,30.25,30.20,30.15,10,10,10,7,4,,0.00,0,,78
2013-9-7,84,68,51,68,60,52,100,80,48,30.15,30.10,30.03,10,10,10,6,2,,0.00,1,,246
2013-9-8,86,75,64,70,68,64,100,81,51,30.05,30.02,29.99,10,8,2,7,3,,0.00,3,Rain,253
2013-9-9,87,76,64,72,68,63,100,78,52,30.12,30.08,30.04,10,8,1,9,4,16,0.00,1,,226
2013-9-10,89,79,69,72,70,70,100,78,52,30.22,30.17,30.10,10,10,7,12,6,17,0.00,0,,238
2013-9-11,87,78,69,72,70,68,100,84,55,30.23,30.18,30.12,10,9,3,10,5,,0.00,1,Rain,246
2013-9-12,82,73,64,72,67,63,100,86,57,30.11,30.02,29.92,10,8,3,14,5,21,0.00,2,Rain,277
2013-9-13,69,58,48,63,51,45,94,69,40,30.09,30.02,29.93,10,10,10,13,7,20,0.00,2,,14
2013-9-14,71,58,44,50,45,41,100,69,35,30.18,30.13,30.09,10,10,10,10,4,,0.00,0,,85
2013-9-15,77,60,42,61,54,43,100,79,50,30.18,30.14,30.10,10,10,7,15,4,18,0.00,1,,229
2013-9-16,69,64,59,63,59,55,100,86,68,30.29,30.20,30.11,10,9,5,9,4,,0.01,6,Rain,89
2013-9-17,75,63,51,59,54,52,100,77,47,30.32,30.26,30.19,10,9,2,14,5,17,0.00,2,,107
2013-9-18,69,64,59,64,62,57,100,90,83,30.22,30.17,30.14,10,10,5,10,5,,0.01,6,Rain,207
2013-9-19,78,71,64,70,65,63,100,86,69,30.18,30.12,30.05,10,10,5,13,5,17,0.00,5,Rain,242
2013-9-20,84,74,64,68,66,64,100,78,51,30.07,29.98,29.86,10,10,5,13,6,17,0.00,1,,228
2013-9-21,71,62,53,66,59,50,100,87,56,29.89,29.82,29.72,10,9,2,13,5,21,1.26,5,Rain,314
2013-9-22,68,58,46,52,49,46,100,78,52,30.02,29.96,29.89,10,10,10,10,3,,0.00,1,,34
2013-9-23,69,58,46,50,48,45,100,73,43,30.12,30.07,30.02,10,10,10,12,5,16,0.00,0,,95
2013-9-24,77,64,50,61,54,46,94,76,47,30.09,30.02,29.93,10,10,10,8,5,,0.00,3,,113
2013-9-25,75,67,59,61,59,57,94,79,53,29.95,29.91,29.88,10,10,10,10,4,,0.00,5,,116
2013-9-26,77,64,50,61,57,50,100,84,50,30.10,30.02,29.95,10,7,0,7,1,,0.00,4,Fog,93
2013-9-27,78,63,48,59,52,46,100,75,32,30.20,30.15,30.10,10,8,0,7,1,,0.00,2,Fog,79
2013-9-28,78,62,46,61,54,46,100,79,44,30.23,30.17,30.12,10,10,10,6,2,,0.00,1,,210
2013-9-29,73,64,55,61,58,54,100,83,61,30.13,30.10,30.05,10,10,5,12,5,16,0.00,2,,244
2013-9-30,77,68,59,61,58,52,100,78,44,30.08,30.05,30.02,10,10,7,14,3,16,0.00,6,,223